Location: Catacaguana
(10.4120°N, 66.7591°W)
Time: 06:26:18
(UTC+00:00)

ATLAS 3B CENTAUR R/B - Pass Details

Date: 27 May 2022
Orbit: 212 x 2511 km, 28.1° (Epoch: 26 June)

Event Time Altitude Azimuth Distance (km) Brightness Sun altitude
Exits shadow 07:57:44 17° 7° (N) 1,316 3.6 -28.7°
Drops below altitude 10° 07:59:58 10° 34° (NE) 1,977 4.9 -28.3°
Enters shadow 09:21:05 -68° 240° (WSW) 12,893 8.1 -10.6°
